TimeCST,TemperatureF,Dew PointF,Humidity,Sea Level PressureIn,VisibilityMPH,Wind Direction,Wind SpeedMPH,Gust SpeedMPH,PrecipitationIn,Events,Conditions,WindDirDegrees,DateUTC
12:15 AM,19.4,13.8,79,30.13,10.0,SSW,13.8,-,N/A,,Overcast,200,2013-01-03 06:15:00
12:35 AM,19.8,14.0,78,30.13,10.0,SSW,11.5,17.3,N/A,,Overcast,210,2013-01-03 06:35:00
12:55 AM,19.4,14.7,82,30.14,10.0,SW,11.5,-,N/A,,Overcast,220,2013-01-03 06:55:00
1:15 AM,19.8,14.7,81,30.14,10.0,SW,10.4,-,N/A,,Overcast,220,2013-01-03 07:15:00
1:35 AM,19.9,15.3,82,30.14,10.0,SW,9.2,-,N/A,,Overcast,220,2013-01-03 07:35:00
1:55 AM,20.1,15.3,81,30.15,10.0,SW,9.2,-,N/A,,Overcast,220,2013-01-03 07:55:00
2:15 AM,20.3,16.7,86,30.14,10.0,SSW,8.1,-,N/A,,Overcast,210,2013-01-03 08:15:00
2:35 AM,21.2,17.4,85,30.14,10.0,SW,8.1,-,N/A,,Overcast,220,2013-01-03 08:35:00
2:55 AM,22.1,18.0,84,30.14,10.0,SW,9.2,-,N/A,,Overcast,220,2013-01-03 08:55:00
3:15 AM,22.8,18.9,85,30.14,10.0,WSW,8.1,-,N/A,,Overcast,240,2013-01-03 09:15:00
3:35 AM,23.7,19.4,84,30.14,10.0,SW,10.4,-,N/A,,Overcast,230,2013-01-03 09:35:00
3:55 AM,23.0,18.9,84,30.14,10.0,SW,8.1,-,N/A,,Overcast,230,2013-01-03 09:55:00
4:15 AM,22.5,18.9,86,30.14,10.0,SW,6.9,-,N/A,,Overcast,230,2013-01-03 10:15:00
4:35 AM,22.8,19.4,87,30.14,10.0,SW,6.9,-,N/A,,Overcast,230,2013-01-03 10:35:00
4:55 AM,22.5,19.4,88,30.14,10.0,SW,8.1,-,N/A,,Overcast,230,2013-01-03 10:55:00
5:15 AM,22.6,19.4,87,30.14,10.0,SW,9.2,-,N/A,,Overcast,230,2013-01-03 11:15:00
5:35 AM,23.0,20.3,89,30.15,10.0,SW,9.2,-,N/A,,Overcast,220,2013-01-03 11:35:00
5:55 AM,23.7,21.0,89,30.15,10.0,SW,10.4,-,N/A,,Overcast,230,2013-01-03 11:55:00
6:15 AM,24.8,21.9,89,30.15,10.0,SW,10.4,-,N/A,,Overcast,230,2013-01-03 12:15:00
6:35 AM,25.2,22.3,89,30.15,10.0,SW,9.2,-,N/A,,Overcast,230,2013-01-03 12:35:00
6:55 AM,26.2,23.5,90,30.16,10.0,WSW,10.4,-,N/A,,Overcast,240,2013-01-03 12:55:00
7:15 AM,26.8,24.1,90,30.16,10.0,WSW,9.2,-,N/A,,Overcast,240,2013-01-03 13:15:00
7:35 AM,27.1,24.4,90,30.16,10.0,WSW,10.4,-,N/A,,Overcast,250,2013-01-03 13:35:00
7:55 AM,27.5,24.8,90,30.17,10.0,WSW,9.2,-,N/A,,Overcast,250,2013-01-03 13:55:00
8:15 AM,28.0,25.5,90,30.17,7.0,WSW,10.4,-,N/A,,Overcast,250,2013-01-03 14:15:00
8:35 AM,27.7,25.2,90,30.17,7.0,SW,8.1,-,N/A,,Mostly Cloudy,230,2013-01-03 14:35:00
8:55 AM,27.5,25.0,90,30.18,7.0,WSW,11.5,-,N/A,,Mostly Cloudy,240,2013-01-03 14:55:00
9:15 AM,28.8,25.7,88,30.20,7.0,WSW,10.4,-,N/A,,Mostly Cloudy,250,2013-01-03 15:15:00
9:35 AM,29.3,26.4,89,30.20,7.0,WSW,10.4,-,N/A,,Overcast,240,2013-01-03 15:35:00
9:55 AM,30.4,27.5,89,30.20,7.0,West,15.0,19.6,N/A,,Overcast,260,2013-01-03 15:55:00
10:15 AM,31.1,27.1,85,30.21,10.0,WSW,13.8,18.4,N/A,,Overcast,250,2013-01-03 16:15:00
10:35 AM,32.0,25.5,77,30.20,10.0,West,16.1,20.7,N/A,,Overcast,280,2013-01-03 16:35:00
10:55 AM,32.0,25.0,75,30.21,10.0,West,17.3,23.0,N/A,,Overcast,270,2013-01-03 16:55:00
11:15 AM,31.6,25.0,76,30.21,10.0,West,13.8,18.4,N/A,,Overcast,280,2013-01-03 17:15:00
11:35 AM,31.1,25.5,80,30.20,10.0,West,11.5,16.1,N/A,,Overcast,280,2013-01-03 17:35:00
11:55 AM,31.3,26.1,81,30.20,10.0,West,10.4,-,N/A,,Overcast,270,2013-01-03 17:55:00
12:15 PM,31.8,25.2,76,30.19,10.0,West,15.0,19.6,N/A,,Overcast,270,2013-01-03 18:15:00
12:35 PM,32.0,24.1,73,30.19,10.0,West,17.3,23.0,N/A,,Overcast,270,2013-01-03 18:35:00
12:55 PM,32.0,24.1,73,30.19,10.0,West,16.1,-,N/A,,Overcast,270,2013-01-03 18:55:00
1:15 PM,31.6,23.5,72,30.20,10.0,West,19.6,-,N/A,,Overcast,280,2013-01-03 19:15:00
1:35 PM,31.3,23.9,74,30.20,10.0,West,15.0,20.7,N/A,,Overcast,280,2013-01-03 19:35:00
1:55 PM,31.5,23.9,74,30.20,10.0,West,13.8,19.6,N/A,,Overcast,260,2013-01-03 19:55:00
2:15 PM,31.5,23.7,73,30.20,10.0,West,17.3,21.9,N/A,,Overcast,270,2013-01-03 20:15:00
2:35 PM,31.6,23.9,73,30.21,10.0,West,15.0,-,N/A,,Overcast,260,2013-01-03 20:35:00
2:55 PM,31.6,23.9,73,30.21,10.0,WSW,16.1,21.9,N/A,,Overcast,250,2013-01-03 20:55:00
3:15 PM,31.6,23.5,72,30.22,10.0,WSW,15.0,-,N/A,,Overcast,250,2013-01-03 21:15:00
3:35 PM,31.6,22.6,69,30.22,10.0,WNW,9.2,18.4,N/A,,Overcast,290,2013-01-03 21:35:00
3:55 PM,31.1,21.7,68,30.23,10.0,WNW,12.7,17.3,N/A,,Overcast,290,2013-01-03 21:55:00
4:15 PM,29.8,21.0,70,30.23,10.0,West,11.5,-,N/A,,Scattered Clouds,280,2013-01-03 22:15:00
4:35 PM,28.0,19.6,71,30.24,10.0,West,10.4,-,N/A,,Clear,280,2013-01-03 22:35:00
4:55 PM,27.0,19.4,73,30.25,10.0,West,10.4,-,N/A,,Clear,270,2013-01-03 22:55:00
5:15 PM,26.1,18.9,74,30.26,10.0,West,9.2,-,N/A,,Clear,260,2013-01-03 23:15:00
5:35 PM,25.7,18.5,74,30.27,10.0,West,9.2,-,N/A,,Clear,270,2013-01-03 23:35:00
5:55 PM,23.7,18.1,79,30.27,10.0,West,8.1,-,N/A,,Clear,270,2013-01-03 23:55:00
6:15 PM,24.4,18.3,78,30.28,10.0,West,8.1,-,N/A,,Mostly Cloudy,260,2013-01-04 00:15:00
6:35 PM,23.9,18.5,80,30.28,10.0,West,9.2,-,N/A,,Scattered Clouds,260,2013-01-04 00:35:00
6:55 PM,23.0,18.9,84,30.29,10.0,West,10.4,-,N/A,,Clear,280,2013-01-04 00:55:00
7:15 PM,23.7,18.9,82,30.29,10.0,West,12.7,16.1,N/A,,Mostly Cloudy,280,2013-01-04 01:15:00
7:35 PM,23.0,18.9,84,30.30,10.0,West,10.4,-,N/A,,Overcast,270,2013-01-04 01:35:00
7:55 PM,23.9,19.4,83,30.30,10.0,West,9.2,-,N/A,,Overcast,280,2013-01-04 01:55:00
8:15 PM,23.9,19.4,83,30.30,10.0,West,6.9,-,N/A,,Overcast,270,2013-01-04 02:15:00
8:35 PM,21.9,18.3,86,30.30,10.0,West,4.6,-,N/A,,Overcast,260,2013-01-04 02:35:00
8:55 PM,19.9,17.1,89,30.30,10.0,WSW,4.6,-,N/A,,Mostly Cloudy,250,2013-01-04 02:55:00
9:15 PM,19.9,16.9,88,30.30,10.0,West,3.5,-,N/A,,Overcast,280,2013-01-04 03:15:00
9:35 PM,20.3,17.6,89,30.30,10.0,WSW,5.8,-,N/A,,Overcast,240,2013-01-04 03:35:00
9:55 PM,21.4,18.3,88,30.30,10.0,West,6.9,-,N/A,,Overcast,270,2013-01-04 03:55:00
10:15 PM,21.7,18.5,87,30.30,10.0,WSW,8.1,-,N/A,,Overcast,250,2013-01-04 04:15:00
10:35 PM,22.3,18.5,85,30.30,10.0,WSW,10.4,-,N/A,,Overcast,250,2013-01-04 04:35:00
10:55 PM,21.6,18.1,87,30.29,10.0,West,10.4,-,N/A,,Overcast,260,2013-01-04 04:55:00
11:15 PM,19.9,16.7,87,30.29,10.0,WSW,9.2,-,N/A,,Overcast,250,2013-01-04 05:15:00
11:35 PM,18.7,15.8,89,30.29,10.0,WSW,11.5,-,N/A,,Scattered Clouds,250,2013-01-04 05:35:00
11:55 PM,17.8,14.9,88,30.29,10.0,WSW,9.2,-,N/A,,Clear,250,2013-01-04 05:55:00